owner,sensor,date,latitude,longitude,vertical_datum,sea_water_practical_salinity,qcFlag 
SCCF RECON,ioos:station:SCCF:11:1,2012-07-01T00:00:00Z,26.4679,-82.0631,1.71,35.8,1111122 
SCCF RECON,ioos:station:SCCF:11:1,2012-07-01T01:00:00Z,26.4679,-82.0631,1.865,35.8,1111122 
SCCF RECON,ioos:station:SCCF:11:1,2012-07-01T02:00:00Z,26.4679,-82.0631,1.98,35.77,1111122 
SCCF RECON,ioos:station:SCCF:11:1,2012-07-01T03:00:00Z,26.4679,-82.0631,2.07,35.75,1111122 
SCCF RECON,ioos:station:SCCF:11:1,2012-07-01T04:00:00Z,26.4679,-82.0631,2.16,34.7,1111122 
SCCF RECON,ioos:station:SCCF:11:1,2012-07-01T05:00:00Z,26.4679,-82.0631,2.19,34.76,1111122 
SCCF RECON,ioos:station:SCCF:11:1,2012-07-01T06:00:00Z,26.4679,-82.0631,2.15,34.91,1111122 
SCCF RECON,ioos:station:SCCF:11:1,2012-07-01T07:00:00Z,26.4679,-82.0631,2.09,35.43,1111122 
SCCF RECON,ioos:station:SCCF:11:1,2012-07-01T08:00:00Z,26.4679,-82.0631,2.03,35.58,1111122 
SCCF RECON,ioos:station:SCCF:11:1,2012-07-01T09:00:00Z,26.4679,-82.0631,1.99,35.74,1111122 
SCCF RECON,ioos:station:SCCF:11:1,2012-07-01T10:00:00Z,26.4679,-82.0631,2.02,35.55,1111122 
SCCF RECON,ioos:station:SCCF:11:1,2012-07-01T11:00:00Z,26.4679,-82.0631,2.14,35.6,1111122 
SCCF RECON,ioos:station:SCCF:11:1,2012-07-01T12:00:00Z,26.4679,-82.0631,2.29,35.2,1111122 
SCCF RECON,ioos:station:SCCF:11:1,2012-07-01T13:00:00Z,26.4679,-82.0631,2.39,34.99,1111122 
SCCF RECON,ioos:station:SCCF:11:1,2012-07-01T14:00:00Z,26.4679,-82.0631,2.454,35.21,1111122 
SCCF RECON,ioos:station:SCCF:11:1,2012-07-01T15:00:00Z,26.4679,-82.0631,2.468,35.33,1111122 
SCCF RECON,ioos:station:SCCF:11:1,2012-07-01T16:00:00Z,26.4679,-82.0631,2.418,35.18,1111122 
SCCF RECON,ioos:station:SCCF:11:1,2012-07-01T17:00:00Z,26.4679,-82.0631,2.289,35.3,1111122 
SCCF RECON,ioos:station:SCCF:11:1,2012-07-01T18:00:00Z,26.4679,-82.0631,2.12,35.53,1111122 
SCCF RECON,ioos:station:SCCF:11:1,2012-07-01T19:00:00Z,26.4679,-82.0631,1.963,35.57,1111122 
SCCF RECON,ioos:station:SCCF:11:1,2012-07-01T20:00:00Z,26.4679,-82.0631,1.801,35.67,1111122 
SCCF RECON,ioos:station:SCCF:11:1,2012-07-01T21:00:00Z,26.4679,-82.0631,1.641,35.72,1111122 
SCCF RECON,ioos:station:SCCF:11:1,2012-07-01T22:00:00Z,26.4679,-82.0631,1.497,35.8,1111122 
SCCF RECON,ioos:station:SCCF:11:1,2012-07-01T23:00:00Z,26.4679,-82.0631,1.43,35.86,1111122 
SCCF RECON,ioos:station:SCCF:11:1,2012-07-02T00:00:00Z,26.4679,-82.0631,1.49,35.9,1111122 
SCCF RECON,ioos:station:SCCF:11:1,2012-07-02T01:00:00Z,26.4679,-82.0631,1.64,35.75,1111122 
SCCF RECON,ioos:station:SCCF:11:1,2012-07-02T02:00:00Z,26.4679,-82.0631,1.81,35.74,1111122 
SCCF RECON,ioos:station:SCCF:11:1,2012-07-02T03:00:00Z,26.4679,-82.0631,1.947,35.64,1111122 
SCCF RECON,ioos:station:SCCF:11:1,2012-07-02T04:00:00Z,26.4679,-82.0631,2.06,35.17,1111122 
SCCF RECON,ioos:station:SCCF:11:1,2012-07-02T05:00:00Z,26.4679,-82.0631,2.14,34.36,1111122 
SCCF RECON,ioos:station:SCCF:11:1,2012-07-02T06:00:00Z,26.4679,-82.0631,2.15,34.55,1111122 
SCCF RECON,ioos:station:SCCF:11:1,2012-07-02T07:00:00Z,26.4679,-82.0631,2.089,35.3,1111122 
SCCF RECON,ioos:station:SCCF:11:1,2012-07-02T08:00:00Z,26.4679,-82.0631,2.0,35.35,1111122 
SCCF RECON,ioos:station:SCCF:11:1,2012-07-02T09:00:00Z,26.4679,-82.0631,1.93,35.64,1111122 
SCCF RECON,ioos:station:SCCF:11:1,2012-07-02T10:00:00Z,26.4679,-82.0631,1.89,35.74,1111122 
SCCF RECON,ioos:station:SCCF:11:1,2012-07-02T11:00:00Z,26.4679,-82.0631,1.932,35.38,1111122 
SCCF RECON,ioos:station:SCCF:11:1,2012-07-02T12:00:00Z,26.4679,-82.0631,2.08,35.53,1111122 
SCCF RECON,ioos:station:SCCF:11:1,2012-07-02T13:00:00Z,26.4679,-82.0631,2.26,34.43,1111122 
SCCF RECON,ioos:station:SCCF:11:1,2012-07-02T14:00:00Z,26.4679,-82.0631,2.37,34.79,1111122 
SCCF RECON,ioos:station:SCCF:11:1,2012-07-02T15:00:00Z,26.4679,-82.0631,2.4,34.81,1111122 
SCCF RECON,ioos:station:SCCF:11:1,2012-07-02T16:00:00Z,26.4679,-82.0631,2.427,34.8,1111122 
SCCF RECON,ioos:station:SCCF:11:1,2012-07-02T17:00:00Z,26.4679,-82.0631,2.41,34.81,1111122 
SCCF RECON,ioos:station:SCCF:11:1,2012-07-02T18:00:00Z,26.4679,-82.0631,2.282,34.93,1111122 
SCCF RECON,ioos:station:SCCF:11:1,2012-07-02T19:00:00Z,26.4679,-82.0631,2.076,35.26,1111122 
SCCF RECON,ioos:station:SCCF:11:1,2012-07-02T20:00:00Z,26.4679,-82.0631,1.916,35.31,1111122 
SCCF RECON,ioos:station:SCCF:11:1,2012-07-02T21:00:00Z,26.4679,-82.0631,1.747,35.47,1111122 
SCCF RECON,ioos:station:SCCF:11:1,2012-07-02T22:00:00Z,26.4679,-82.0631,1.586,35.54,1111122 
SCCF RECON,ioos:station:SCCF:11:1,2012-07-02T23:00:00Z,26.4679,-82.0631,1.467,35.74,1111122 
SCCF RECON,ioos:station:SCCF:11:1,2012-07-03T00:00:00Z,26.4679,-82.0631,1.436,35.84,1111122 
SCCF RECON,ioos:station:SCCF:11:1,2012-07-03T01:00:00Z,26.4679,-82.0631,1.53,35.79,1111122 
SCCF RECON,ioos:station:SCCF:11:1,2012-07-03T02:00:00Z,26.4679,-82.0631,1.71,35.58,1111122 
SCCF RECON,ioos:station:SCCF:11:1,2012-07-03T03:00:00Z,26.4679,-82.0631,1.88,35.56,1111122 
SCCF RECON,ioos:station:SCCF:11:1,2012-07-03T04:00:00Z,26.4679,-82.0631,2.01,35.45,1111122 
SCCF RECON,ioos:station:SCCF:11:1,2012-07-03T05:00:00Z,26.4679,-82.0631,2.11,34.86,1111122 
SCCF RECON,ioos:station:SCCF:11:1,2012-07-03T06:00:00Z,26.4679,-82.0631,2.166,34.83,1111122 
SCCF RECON,ioos:station:SCCF:11:1,2012-07-03T07:00:00Z,26.4679,-82.0631,2.16,34.96,1111122 
SCCF RECON,ioos:station:SCCF:11:1,2012-07-03T08:00:00Z,26.4679,-82.0631,2.069,34.86,1111122 
SCCF RECON,ioos:station:SCCF:11:1,2012-07-03T09:00:00Z,26.4679,-82.0631,2.0,35.21,1111122 
SCCF RECON,ioos:station:SCCF:11:1,2012-07-03T10:00:00Z,26.4679,-82.0631,1.95,35.49,1111122 
SCCF RECON,ioos:station:SCCF:11:1,2012-07-03T11:00:00Z,26.4679,-82.0631,1.92,35.37,1111122 
SCCF RECON,ioos:station:SCCF:11:1,2012-07-03T12:00:00Z,26.4679,-82.0631,1.99,35.25,1111122 
SCCF RECON,ioos:station:SCCF:11:1,2012-07-03T13:00:00Z,26.4679,-82.0631,2.157,35.28,1111122 
SCCF RECON,ioos:station:SCCF:11:1,2012-07-03T14:00:00Z,26.4679,-82.0631,2.294,35.09,1111122 
SCCF RECON,ioos:station:SCCF:11:1,2012-07-03T15:00:00Z,26.4679,-82.0631,2.404,35.11,1111122 
SCCF RECON,ioos:station:SCCF:11:1,2012-07-03T16:00:00Z,26.4679,-82.0631,2.47,35.52,1111122 
SCCF RECON,ioos:station:SCCF:11:1,2012-07-03T17:00:00Z,26.4679,-82.0631,2.5,35.29,1111122 
SCCF RECON,ioos:station:SCCF:11:1,2012-07-03T18:00:00Z,26.4679,-82.0631,2.45,35.16,1111122 
SCCF RECON,ioos:station:SCCF:11:1,2012-07-03T19:00:00Z,26.4679,-82.0631,2.301,35.18,1111122 
SCCF RECON,ioos:station:SCCF:11:1,2012-07-03T20:00:00Z,26.4679,-82.0631,2.096,35.33,1111122 
SCCF RECON,ioos:station:SCCF:11:1,2012-07-03T21:00:00Z,26.4679,-82.0631,1.924,35.47,1111122 
SCCF RECON,ioos:station:SCCF:11:1,2012-07-03T22:00:00Z,26.4679,-82.0631,1.782,35.58,1111122 
SCCF RECON,ioos:station:SCCF:11:1,2012-07-03T23:00:00Z,26.4679,-82.0631,1.593,35.68,1111122 
SCCF RECON,ioos:station:SCCF:11:1,2012-07-04T00:00:00Z,26.4679,-82.0631,1.479,35.76,1111122 
SCCF RECON,ioos:station:SCCF:11:1,2012-07-04T01:00:00Z,26.4679,-82.0631,1.47,35.8,1111122 
SCCF RECON,ioos:station:SCCF:11:1,2012-07-04T02:00:00Z,26.4679,-82.0631,1.57,35.71,1111122 
SCCF RECON,ioos:station:SCCF:11:1,2012-07-04T03:00:00Z,26.4679,-82.0631,1.76,35.12,1111122 
SCCF RECON,ioos:station:SCCF:11:1,2012-07-04T04:00:00Z,26.4679,-82.0631,1.92,35.11,1111122 
SCCF RECON,ioos:station:SCCF:11:1,2012-07-04T05:00:00Z,26.4679,-82.0631,2.041,35.18,1111122 
SCCF RECON,ioos:station:SCCF:11:1,2012-07-04T06:00:00Z,26.4679,-82.0631,2.14,35.0,1111122 
SCCF RECON,ioos:station:SCCF:11:1,2012-07-04T07:00:00Z,26.4679,-82.0631,2.23,35.07,1111122 
SCCF RECON,ioos:station:SCCF:11:1,2012-07-04T08:00:00Z,26.4679,-82.0631,2.13,34.94,1111122 
SCCF RECON,ioos:station:SCCF:11:1,2012-07-04T09:00:00Z,26.4679,-82.0631,2.048,35.01,1111122 
SCCF RECON,ioos:station:SCCF:11:1,2012-07-04T10:00:00Z,26.4679,-82.0631,1.99,35.23,1111122 
SCCF RECON,ioos:station:SCCF:11:1,2012-07-04T11:00:00Z,26.4679,-82.0631,1.96,35.3,1111122 
SCCF RECON,ioos:station:SCCF:11:1,2012-07-04T12:00:00Z,26.4679,-82.0631,1.95,35.25,1111122 
SCCF RECON,ioos:station:SCCF:11:1,2012-07-04T13:00:00Z,26.4679,-82.0631,2.03,35.15,1111122 
SCCF RECON,ioos:station:SCCF:11:1,2012-07-04T14:00:00Z,26.4679,-82.0631,2.181,35.45,1111122 
SCCF RECON,ioos:station:SCCF:11:1,2012-07-04T15:00:00Z,26.4679,-82.0631,2.348,34.87,1111122 
SCCF RECON,ioos:station:SCCF:11:1,2012-07-04T16:00:00Z,26.4679,-82.0631,2.452,35.08,1111122 
SCCF RECON,ioos:station:SCCF:11:1,2012-07-04T17:00:00Z,26.4679,-82.0631,2.489,35.42,1111122 
SCCF RECON,ioos:station:SCCF:11:1,2012-07-04T18:00:00Z,26.4679,-82.0631,2.49,35.3,1111122 
SCCF RECON,ioos:station:SCCF:11:1,2012-07-04T19:00:00Z,26.4679,-82.0631,2.4,34.93,1111122 
SCCF RECON,ioos:station:SCCF:11:1,2012-07-04T20:00:00Z,26.4679,-82.0631,2.256,35.04,1111122 
SCCF RECON,ioos:station:SCCF:11:1,2012-07-04T21:00:00Z,26.4679,-82.0631,2.091,35.17,1111122 
SCCF RECON,ioos:station:SCCF:11:1,2012-07-04T22:00:00Z,26.4679,-82.0631,1.925,35.29,1111122 
SCCF RECON,ioos:station:SCCF:11:1,2012-07-04T23:00:00Z,26.4679,-82.0631,1.762,35.31,1111122 
SCCF RECON,ioos:station:SCCF:11:1,2012-07-05T00:00:00Z,26.4679,-82.0631,1.614,35.43,1111122 
SCCF RECON,ioos:station:SCCF:11:1,2012-07-05T01:00:00Z,26.4679,-82.0631,1.515,35.61,1111122 
SCCF RECON,ioos:station:SCCF:11:1,2012-07-05T02:00:00Z,26.4679,-82.0631,1.527,35.44,1111122 
SCCF RECON,ioos:station:SCCF:11:1,2012-07-05T03:00:00Z,26.4679,-82.0631,1.677,35.38,1111122 
SCCF RECON,ioos:station:SCCF:11:1,2012-07-05T04:00:00Z,26.4679,-82.0631,1.86,35.16,1111122 
SCCF RECON,ioos:station:SCCF:11:1,2012-07-05T05:00:00Z,26.4679,-82.0631,1.966,35.24,1111122 
SCCF RECON,ioos:station:SCCF:11:1,2012-07-05T06:00:00Z,26.4679,-82.0631,2.083,35.24,1111122 
SCCF RECON,ioos:station:SCCF:11:1,2012-07-05T07:00:00Z,26.4679,-82.0631,2.17,35.26,1111122 
SCCF RECON,ioos:station:SCCF:11:1,2012-07-05T08:00:00Z,26.4679,-82.0631,2.17,35.24,1111122 
SCCF RECON,ioos:station:SCCF:11:1,2012-07-05T09:00:00Z,26.4679,-82.0631,2.14,35.21,1111122 
SCCF RECON,ioos:station:SCCF:11:1,2012-07-05T10:00:00Z,26.4679,-82.0631,2.054,35.19,1111122 
SCCF RECON,ioos:station:SCCF:11:1,2012-07-05T11:00:00Z,26.4679,-82.0631,1.97,35.22,1111122 
SCCF RECON,ioos:station:SCCF:11:1,2012-07-05T12:00:00Z,26.4679,-82.0631,1.93,35.35,1111122 
SCCF RECON,ioos:station:SCCF:11:1,2012-07-05T13:00:00Z,26.4679,-82.0631,1.94,35.36,1111122 
SCCF RECON,ioos:station:SCCF:11:1,2012-07-05T14:00:00Z,26.4679,-82.0631,2.028,35.36,1111122 
SCCF RECON,ioos:station:SCCF:11:1,2012-07-05T15:00:00Z,26.4679,-82.0631,2.18,35.4,1111122 
SCCF RECON,ioos:station:SCCF:11:1,2012-07-05T16:00:00Z,26.4679,-82.0631,2.314,35.17,1111122 
SCCF RECON,ioos:station:SCCF:11:1,2012-07-05T17:00:00Z,26.4679,-82.0631,2.408,35.29,1111122 
SCCF RECON,ioos:station:SCCF:11:1,2012-07-05T18:00:00Z,26.4679,-82.0631,2.443,35.44,1111122 
SCCF RECON,ioos:station:SCCF:11:1,2012-07-05T19:00:00Z,26.4679,-82.0631,2.45,35.51,1111122 
SCCF RECON,ioos:station:SCCF:11:1,2012-07-05T20:00:00Z,26.4679,-82.0631,2.363,35.24,1111122 
SCCF RECON,ioos:station:SCCF:11:1,2012-07-05T21:00:00Z,26.4679,-82.0631,2.243,35.3,1111122 
SCCF RECON,ioos:station:SCCF:11:1,2012-07-05T22:00:00Z,26.4679,-82.0631,2.04,35.4,1111122 
SCCF RECON,ioos:station:SCCF:11:1,2012-07-05T23:00:00Z,26.4679,-82.0631,1.893,35.46,1111122 
SCCF RECON,ioos:station:SCCF:11:1,2012-07-06T00:00:00Z,26.4679,-82.0631,1.75,35.5,1111122 
SCCF RECON,ioos:station:SCCF:11:1,2012-07-06T01:00:00Z,26.4679,-82.0631,1.621,35.53,1111122 
SCCF RECON,ioos:station:SCCF:11:1,2012-07-06T02:00:00Z,26.4679,-82.0631,1.54,35.6,1111122 
SCCF RECON,ioos:station:SCCF:11:1,2012-07-06T03:00:00Z,26.4679,-82.0631,1.6,35.47,1111122 
SCCF RECON,ioos:station:SCCF:11:1,2012-07-06T04:00:00Z,26.4679,-82.0631,1.77,35.45,1111122 
SCCF RECON,ioos:station:SCCF:11:1,2012-07-06T05:00:00Z,26.4679,-82.0631,1.96,35.15,1111122 
SCCF RECON,ioos:station:SCCF:11:1,2012-07-06T06:00:00Z,26.4679,-82.0631,2.09,35.38,1111122 
SCCF RECON,ioos:station:SCCF:11:1,2012-07-06T07:00:00Z,26.4679,-82.0631,2.159,35.32,1111122 
SCCF RECON,ioos:station:SCCF:11:1,2012-07-06T08:00:00Z,26.4679,-82.0631,2.2,34.97,1111122 
SCCF RECON,ioos:station:SCCF:11:1,2012-07-06T09:00:00Z,26.4679,-82.0631,2.18,34.93,1111122 
SCCF RECON,ioos:station:SCCF:11:1,2012-07-06T10:00:00Z,26.4679,-82.0631,2.08,35.12,1111122 
SCCF RECON,ioos:station:SCCF:11:1,2012-07-06T11:00:00Z,26.4679,-82.0631,2.01,35.29,1111122 
SCCF RECON,ioos:station:SCCF:11:1,2012-07-06T12:00:00Z,26.4679,-82.0631,1.921,35.3,1111122 
SCCF RECON,ioos:station:SCCF:11:1,2012-07-06T13:00:00Z,26.4679,-82.0631,1.869,35.33,1111122 
SCCF RECON,ioos:station:SCCF:11:1,2012-07-06T14:00:00Z,26.4679,-82.0631,1.86,35.38,1111122 
SCCF RECON,ioos:station:SCCF:11:1,2012-07-06T15:00:00Z,26.4679,-82.0631,1.96,35.35,1111122 
SCCF RECON,ioos:station:SCCF:11:1,2012-07-06T16:00:00Z,26.4679,-82.0631,2.112,35.03,1111122 
SCCF RECON,ioos:station:SCCF:11:1,2012-07-06T17:00:00Z,26.4679,-82.0631,2.26,34.47,1111122 
SCCF RECON,ioos:station:SCCF:11:1,2012-07-06T18:00:00Z,26.4679,-82.0631,2.349,34.74,1111122 
SCCF RECON,ioos:station:SCCF:11:1,2012-07-06T19:00:00Z,26.4679,-82.0631,2.391,34.91,1111122 
SCCF RECON,ioos:station:SCCF:11:1,2012-07-06T20:00:00Z,26.4679,-82.0631,2.409,35.1,1111122 
SCCF RECON,ioos:station:SCCF:11:1,2012-07-06T21:00:00Z,26.4679,-82.0631,2.28,34.82,1111122 
SCCF RECON,ioos:station:SCCF:11:1,2012-07-06T22:00:00Z,26.4679,-82.0631,2.094,34.91,1111122 
SCCF RECON,ioos:station:SCCF:11:1,2012-07-06T23:00:00Z,26.4679,-82.0631,1.97,35.03,1111122 
SCCF RECON,ioos:station:SCCF:11:1,2012-07-07T00:00:00Z,26.4679,-82.0631,1.83,35.09,1111122 
SCCF RECON,ioos:station:SCCF:11:1,2012-07-07T01:00:00Z,26.4679,-82.0631,1.704,35.23,1111122 
SCCF RECON,ioos:station:SCCF:11:1,2012-07-07T02:00:00Z,26.4679,-82.0631,1.629,35.32,1111122 
SCCF RECON,ioos:station:SCCF:11:1,2012-07-07T03:00:00Z,26.4679,-82.0631,1.59,35.33,1111122 
SCCF RECON,ioos:station:SCCF:11:1,2012-07-07T04:00:00Z,26.4679,-82.0631,1.66,35.16,1111122 
SCCF RECON,ioos:station:SCCF:11:1,2012-07-07T05:00:00Z,26.4679,-82.0631,1.86,35.02,1111122 
SCCF RECON,ioos:station:SCCF:11:1,2012-07-07T06:00:00Z,26.4679,-82.0631,2.03,34.87,1111122 
SCCF RECON,ioos:station:SCCF:11:1,2012-07-07T07:00:00Z,26.4679,-82.0631,2.11,35.0,1111122 
SCCF RECON,ioos:station:SCCF:11:1,2012-07-07T08:00:00Z,26.4679,-82.0631,2.17,34.69,1111122 
SCCF RECON,ioos:station:SCCF:11:1,2012-07-07T09:00:00Z,26.4679,-82.0631,2.19,34.6,1111122 
SCCF RECON,ioos:station:SCCF:11:1,2012-07-07T10:00:00Z,26.4679,-82.0631,2.12,34.75,1111122 
SCCF RECON,ioos:station:SCCF:11:1,2012-07-07T11:00:00Z,26.4679,-82.0631,2.03,34.94,1111122 
SCCF RECON,ioos:station:SCCF:11:1,2012-07-07T12:00:00Z,26.4679,-82.0631,1.95,35.03,1111122 
SCCF RECON,ioos:station:SCCF:11:1,2012-07-07T13:00:00Z,26.4679,-82.0631,1.911,35.18,1111122 
SCCF RECON,ioos:station:SCCF:11:1,2012-07-07T14:00:00Z,26.4679,-82.0631,1.85,35.18,1111122 
SCCF RECON,ioos:station:SCCF:11:1,2012-07-07T15:00:00Z,26.4679,-82.0631,1.84,35.09,1111122 
SCCF RECON,ioos:station:SCCF:11:1,2012-07-07T16:00:00Z,26.4679,-82.0631,1.95,35.1,1111122 
SCCF RECON,ioos:station:SCCF:11:1,2012-07-07T17:00:00Z,26.4679,-82.0631,2.106,34.55,1111122 
SCCF RECON,ioos:station:SCCF:11:1,2012-07-07T18:00:00Z,26.4679,-82.0631,2.223,33.77,1111122 
SCCF RECON,ioos:station:SCCF:11:1,2012-07-07T19:00:00Z,26.4679,-82.0631,2.299,34.06,1111122 
SCCF RECON,ioos:station:SCCF:11:1,2012-07-07T20:00:00Z,26.4679,-82.0631,2.326,34.14,1111122 
SCCF RECON,ioos:station:SCCF:11:1,2012-07-07T21:00:00Z,26.4679,-82.0631,2.29,34.1,1111122 
SCCF RECON,ioos:station:SCCF:11:1,2012-07-07T22:00:00Z,26.4679,-82.0631,2.21,34.26,1111122 
SCCF RECON,ioos:station:SCCF:11:1,2012-07-07T23:00:00Z,26.4679,-82.0631,2.1,34.55,1111122 
SCCF RECON,ioos:station:SCCF:11:1,2012-07-08T00:00:00Z,26.4679,-82.0631,1.94,34.69,1111122 
SCCF RECON,ioos:station:SCCF:11:1,2012-07-08T01:00:00Z,26.4679,-82.0631,1.844,34.82,1111122 
SCCF RECON,ioos:station:SCCF:11:1,2012-07-08T02:00:00Z,26.4679,-82.0631,1.77,34.9,1111122 
SCCF RECON,ioos:station:SCCF:11:1,2012-07-08T03:00:00Z,26.4679,-82.0631,1.69,34.95,1111122 
SCCF RECON,ioos:station:SCCF:11:1,2012-07-08T04:00:00Z,26.4679,-82.0631,1.69,34.61,1111122 
SCCF RECON,ioos:station:SCCF:11:1,2012-07-08T05:00:00Z,26.4679,-82.0631,1.845,34.73,1111122 
SCCF RECON,ioos:station:SCCF:11:1,2012-07-08T06:00:00Z,26.4679,-82.0631,2.01,34.57,1111122 
SCCF RECON,ioos:station:SCCF:11:1,2012-07-08T07:00:00Z,26.4679,-82.0631,2.13,34.56,1111122 
SCCF RECON,ioos:station:SCCF:11:1,2012-07-08T08:00:00Z,26.4679,-82.0631,2.192,34.23,1111122 
SCCF RECON,ioos:station:SCCF:11:1,2012-07-08T09:00:00Z,26.4679,-82.0631,2.23,34.31,1111122 
SCCF RECON,ioos:station:SCCF:11:1,2012-07-08T10:00:00Z,26.4679,-82.0631,2.22,34.21,1111122 
SCCF RECON,ioos:station:SCCF:11:1,2012-07-08T11:00:00Z,26.4679,-82.0631,2.136,34.35,1111122 
SCCF RECON,ioos:station:SCCF:11:1,2012-07-08T12:00:00Z,26.4679,-82.0631,2.028,34.46,1111122 
SCCF RECON,ioos:station:SCCF:11:1,2012-07-08T13:00:00Z,26.4679,-82.0631,1.933,34.74,1111122 
SCCF RECON,ioos:station:SCCF:11:1,2012-07-08T14:00:00Z,26.4679,-82.0631,1.859,34.81,1111122 
SCCF RECON,ioos:station:SCCF:11:1,2012-07-08T15:00:00Z,26.4679,-82.0631,1.793,34.84,1111122 
SCCF RECON,ioos:station:SCCF:11:1,2012-07-08T16:00:00Z,26.4679,-82.0631,1.781,34.65,1111122 
SCCF RECON,ioos:station:SCCF:11:1,2012-07-08T17:00:00Z,26.4679,-82.0631,1.86,34.72,1111122 
SCCF RECON,ioos:station:SCCF:11:1,2012-07-08T18:00:00Z,26.4679,-82.0631,2.02,34.21,1111122 
SCCF RECON,ioos:station:SCCF:11:1,2012-07-08T19:00:00Z,26.4679,-82.0631,2.119,33.49,1111122 
SCCF RECON,ioos:station:SCCF:11:1,2012-07-08T20:00:00Z,26.4679,-82.0631,2.16,33.47,1111122 
SCCF RECON,ioos:station:SCCF:11:1,2012-07-08T21:00:00Z,26.4679,-82.0631,2.153,33.35,1111122 
SCCF RECON,ioos:station:SCCF:11:1,2012-07-08T22:00:00Z,26.4679,-82.0631,2.125,33.75,1111122 
SCCF RECON,ioos:station:SCCF:11:1,2012-07-08T23:00:00Z,26.4679,-82.0631,2.111,33.85,1111122 
SCCF RECON,ioos:station:SCCF:11:1,2012-07-09T00:00:00Z,26.4679,-82.0631,2.04,34.03,1111122 
SCCF RECON,ioos:station:SCCF:11:1,2012-07-09T01:00:00Z,26.4679,-82.0631,1.88,34.23,1111122 
SCCF RECON,ioos:station:SCCF:11:1,2012-07-09T02:00:00Z,26.4679,-82.0631,1.82,34.64,1111122 
SCCF RECON,ioos:station:SCCF:11:1,2012-07-09T03:00:00Z,26.4679,-82.0631,1.73,34.53,1111122 
SCCF RECON,ioos:station:SCCF:11:1,2012-07-09T04:00:00Z,26.4679,-82.0631,1.69,34.85,1111122 
SCCF RECON,ioos:station:SCCF:11:1,2012-07-09T05:00:00Z,26.4679,-82.0631,1.72,34.41,1111122 
SCCF RECON,ioos:station:SCCF:11:1,2012-07-09T06:00:00Z,26.4679,-82.0631,1.82,34.65,1111122 
SCCF RECON,ioos:station:SCCF:11:1,2012-07-09T07:00:00Z,26.4679,-82.0631,2.03,34.13,1111122 
SCCF RECON,ioos:station:SCCF:11:1,2012-07-09T08:00:00Z,26.4679,-82.0631,2.12,33.99,1111122 
SCCF RECON,ioos:station:SCCF:11:1,2012-07-09T09:00:00Z,26.4679,-82.0631,2.19,34.0,1111122 
SCCF RECON,ioos:station:SCCF:11:1,2012-07-09T10:00:00Z,26.4679,-82.0631,2.24,33.76,1111122 
SCCF RECON,ioos:station:SCCF:11:1,2012-07-09T11:00:00Z,26.4679,-82.0631,2.217,33.77,1111122 
SCCF RECON,ioos:station:SCCF:11:1,2012-07-09T12:00:00Z,26.4679,-82.0631,2.12,33.89,1111122 
SCCF RECON,ioos:station:SCCF:11:1,2012-07-09T13:00:00Z,26.4679,-82.0631,1.99,34.37,1111122 
SCCF RECON,ioos:station:SCCF:11:1,2012-07-09T14:00:00Z,26.4679,-82.0631,1.91,34.58,1111122 
SCCF RECON,ioos:station:SCCF:11:1,2012-07-09T15:00:00Z,26.4679,-82.0631,1.849,34.64,1111122 
SCCF RECON,ioos:station:SCCF:11:1,2012-07-09T16:00:00Z,26.4679,-82.0631,1.8,34.6,1111122 
SCCF RECON,ioos:station:SCCF:11:1,2012-07-09T17:00:00Z,26.4679,-82.0631,1.78,34.33,1111122 
SCCF RECON,ioos:station:SCCF:11:1,2012-07-09T18:00:00Z,26.4679,-82.0631,1.86,34.48,1111122 
SCCF RECON,ioos:station:SCCF:11:1,2012-07-09T19:00:00Z,26.4679,-82.0631,1.98,34.38,1111122 
SCCF RECON,ioos:station:SCCF:11:1,2012-07-09T20:00:00Z,26.4679,-82.0631,2.059,34.07,1111122 
SCCF RECON,ioos:station:SCCF:11:1,2012-07-09T21:00:00Z,26.4679,-82.0631,2.09,33.71,1111122 
SCCF RECON,ioos:station:SCCF:11:1,2012-07-09T22:00:00Z,26.4679,-82.0631,2.08,33.96,1111122 
SCCF RECON,ioos:station:SCCF:11:1,2012-07-09T23:00:00Z,26.4679,-82.0631,2.09,33.87,1111122 
SCCF RECON,ioos:station:SCCF:11:1,2012-07-10T00:00:00Z,26.4679,-82.0631,2.07,33.87,1111122 
SCCF RECON,ioos:station:SCCF:11:1,2012-07-10T01:00:00Z,26.4679,-82.0631,2.0,33.91,1111122 
SCCF RECON,ioos:station:SCCF:11:1,2012-07-10T02:00:00Z,26.4679,-82.0631,1.91,34.21,1111122 
SCCF RECON,ioos:station:SCCF:11:1,2012-07-10T03:00:00Z,26.4679,-82.0631,1.83,34.47,1111122 
SCCF RECON,ioos:station:SCCF:11:1,2012-07-10T04:00:00Z,26.4679,-82.0631,1.79,34.5,1111122 
SCCF RECON,ioos:station:SCCF:11:1,2012-07-10T05:00:00Z,26.4679,-82.0631,1.8,34.62,1111122 
SCCF RECON,ioos:station:SCCF:11:1,2012-07-10T06:00:00Z,26.4679,-82.0631,1.89,34.37,1111122 
SCCF RECON,ioos:station:SCCF:11:1,2012-07-10T07:00:00Z,26.4679,-82.0631,1.97,33.94,1111122 
SCCF RECON,ioos:station:SCCF:11:1,2012-07-10T08:00:00Z,26.4679,-82.0631,2.07,33.51,1111122 
SCCF RECON,ioos:station:SCCF:11:1,2012-07-10T09:00:00Z,26.4679,-82.0631,2.14,33.24,1111122 
SCCF RECON,ioos:station:SCCF:11:1,2012-07-10T10:00:00Z,26.4679,-82.0631,2.17,33.16,1111122 
SCCF RECON,ioos:station:SCCF:11:1,2012-07-10T11:00:00Z,26.4679,-82.0631,2.179,33.18,1111122 
SCCF RECON,ioos:station:SCCF:11:1,2012-07-10T12:00:00Z,26.4679,-82.0631,2.12,33.59,1111122 
SCCF RECON,ioos:station:SCCF:11:1,2012-07-10T13:00:00Z,26.4679,-82.0631,2.05,33.83,1111122 
SCCF RECON,ioos:station:SCCF:11:1,2012-07-10T14:00:00Z,26.4679,-82.0631,1.96,34.34,1111122 
SCCF RECON,ioos:station:SCCF:11:1,2012-07-10T15:00:00Z,26.4679,-82.0631,1.89,34.48,1111122 
SCCF RECON,ioos:station:SCCF:11:1,2012-07-10T16:00:00Z,26.4679,-82.0631,1.78,34.57,1111122 
SCCF RECON,ioos:station:SCCF:11:1,2012-07-10T17:00:00Z,26.4679,-82.0631,1.702,34.74,1111122 
SCCF RECON,ioos:station:SCCF:11:1,2012-07-10T18:00:00Z,26.4679,-82.0631,1.67,34.39,1111122 
SCCF RECON,ioos:station:SCCF:11:1,2012-07-10T19:00:00Z,26.4679,-82.0631,1.759,34.56,1111122 
SCCF RECON,ioos:station:SCCF:11:1,2012-07-10T20:00:00Z,26.4679,-82.0631,1.906,34.03,1111122 
SCCF RECON,ioos:station:SCCF:11:1,2012-07-10T21:00:00Z,26.4679,-82.0631,1.934,34.02,1111122 
SCCF RECON,ioos:station:SCCF:11:1,2012-07-10T22:00:00Z,26.4679,-82.0631,2.04,33.77,1111122 
SCCF RECON,ioos:station:SCCF:11:1,2012-07-10T23:00:00Z,26.4679,-82.0631,2.12,33.61,1111122 
SCCF RECON,ioos:station:SCCF:11:1,2012-07-11T00:00:00Z,26.4679,-82.0631,2.054,33.67,1111122 
SCCF RECON,ioos:station:SCCF:11:1,2012-07-11T01:00:00Z,26.4679,-82.0631,1.99,33.64,1111122 
SCCF RECON,ioos:station:SCCF:11:1,2012-07-11T02:00:00Z,26.4679,-82.0631,1.939,33.77,1111122 
SCCF RECON,ioos:station:SCCF:11:1,2012-07-11T03:00:00Z,26.4679,-82.0631,1.89,33.84,1111122 
SCCF RECON,ioos:station:SCCF:11:1,2012-07-11T04:00:00Z,26.4679,-82.0631,1.84,34.0,1111122 
SCCF RECON,ioos:station:SCCF:11:1,2012-07-11T05:00:00Z,26.4679,-82.0631,1.81,34.04,1111122 
SCCF RECON,ioos:station:SCCF:11:1,2012-07-11T06:00:00Z,26.4679,-82.0631,1.859,34.04,1111122 
SCCF RECON,ioos:station:SCCF:11:1,2012-07-11T07:00:00Z,26.4679,-82.0631,1.94,33.88,1111122 
SCCF RECON,ioos:station:SCCF:11:1,2012-07-11T08:00:00Z,26.4679,-82.0631,2.023,33.68,1111122 
SCCF RECON,ioos:station:SCCF:11:1,2012-07-11T09:00:00Z,26.4679,-82.0631,2.1,33.47,1111122 
SCCF RECON,ioos:station:SCCF:11:1,2012-07-11T10:00:00Z,26.4679,-82.0631,2.17,33.21,1111122 
SCCF RECON,ioos:station:SCCF:11:1,2012-07-11T11:00:00Z,26.4679,-82.0631,2.217,33.25,1111122 
SCCF RECON,ioos:station:SCCF:11:1,2012-07-11T12:00:00Z,26.4679,-82.0631,2.21,33.22,1111122 
SCCF RECON,ioos:station:SCCF:11:1,2012-07-11T13:00:00Z,26.4679,-82.0631,2.173,33.25,1111122 
SCCF RECON,ioos:station:SCCF:11:1,2012-07-11T14:00:00Z,26.4679,-82.0631,2.037,33.47,1111122 
SCCF RECON,ioos:station:SCCF:11:1,2012-07-11T15:00:00Z,26.4679,-82.0631,1.93,33.83,1111122 
SCCF RECON,ioos:station:SCCF:11:1,2012-07-11T16:00:00Z,26.4679,-82.0631,1.821,34.04,1111122 
SCCF RECON,ioos:station:SCCF:11:1,2012-07-11T17:00:00Z,26.4679,-82.0631,1.72,34.1,1111122 
SCCF RECON,ioos:station:SCCF:11:1,2012-07-11T18:00:00Z,26.4679,-82.0631,1.688,34.25,1111122 